This is the latest recevied weather packets stored in our database for station/object DG4DAZ-6. If no packets are shown the sender has not sent any weather packets the latest 10 day(s).
| Time | Temp. | Humidity | Pressure | Rain* | Wind** | Luminosity | Snow |
|---|---|---|---|---|---|---|---|
| 1777405136 | 11.67° C | 52% | 1021.5 hPa | 0 mm | - | 0 W/m² | - |
| 1777404535 | 11.67° C | 51% | 1021.4 hPa | 0 mm | - | 0 W/m² | - |
| 1777403935 | 12.22° C | 51% | 1021.3 hPa | 0 mm | - | 0 W/m² | - |
| 1777403336 | 12.22° C | 50% | 1021.2 hPa | 0 mm | - | 0 W/m² | - |
| 1777402735 | 12.78° C | 49% | 1021.1 hPa | 0 mm | - | 0 W/m² | - |
| 1777402135 | 12.78° C | 49% | 1021 hPa | 0 mm | - | 2 W/m² | - |
| 1777401534 | 13.33° C | 49% | 1020.9 hPa | 0 mm | - | 7 W/m² | - |
| 1777400936 | 13.33° C | 49% | 1020.7 hPa | 0 mm | - | 10 W/m² | - |
| 1777400335 | 13.89° C | 49% | 1020.6 hPa | 0 mm | - | 12 W/m² | - |
| 1777399734 | 13.89° C | 49% | 1020.5 hPa | 0 mm | - | 15 W/m² | - |
| 1777399135 | 14.44° C | 49% | 1020.4 hPa | 0 mm | - | 18 W/m² | - |
| 1777398534 | 14.44° C | 48% | 1020.3 hPa | 0 mm | - | 20 W/m² | - |
| 1777397934 | 15° C | 47% | 1020.2 hPa | 0 mm | - | 25 W/m² | - |
| 1777397334 | 15° C | 45% | 1020.2 hPa | 0 mm | - | 119 W/m² | - |
| 1777396736 | 15.56° C | 44% | 1020.1 hPa | 0 mm | - | 150 W/m² | - |
| 1777396135 | 15.56° C | 43% | 1020.1 hPa | 0 mm | - | 131 W/m² | - |
| 1777395534 | 15.56° C | 41% | 1020 hPa | 0 mm | - | 30 W/m² | - |
| 1777394936 | 15.56° C | 40% | 1020.1 hPa | 0 mm | - | 32 W/m² | - |
| 1777394335 | 15.56° C | 40% | 1020 hPa | 0 mm | - | 33 W/m² | - |
| 1777393734 | 15.56° C | 39% | 1020 hPa | 0 mm | - | 37 W/m² | - |
| 1777393135 | 16.11° C | 38% | 1020 hPa | 0 mm | - | 39 W/m² | - |
| 1777392534 | 16.11° C | 37% | 1020 hPa | 0 mm | - | 42 W/m² | - |
| 1777391934 | 16.67° C | 37% | 1019.9 hPa | 0 mm | - | 44 W/m² | - |
| 1777391336 | 16.67° C | 37% | 1019.9 hPa | 0 mm | - | 45 W/m² | - |
| 1777390735 | 16.67° C | 36% | 1019.8 hPa | 0 mm | - | 50 W/m² | - |
* Rain latest hour (hover to see other rain measurements)
** Current wind speed in m/s (hover to see current wind gust speed)